User: anonymous   Login
Location: Unspecified
(0.0000°N, 0.0000°E)
Time: 20:44:22
(UTC+00:00)
Language:

A-11 Canister half - Orbit

View from above orbital plane
View from above orbital plane
View from above satellite
View from above satellite

Ground track
Ground track

The orbit data is extracted from the following two-line orbital elements,

1    53U 60009E   17142.95111551 -.00000085 +00000-0 +00000-0 0  9990
2    53 047.2749 117.3646 0099184 006.0786 354.1184 12.17200916531968
Epoch (UTC): 22 May 2017 22:49:36
Eccentricity: 0.0099184
inclination: 47.2749°
perigee height: 1525 km
apogee height: 1684 km
right ascension of ascending node: 117.3646°
argument of perigee: 6.0786°
revolutions per day: 12.17200916
mean anomaly at epoch: 354.1184°
orbit number at epoch: 53196

The dashed part of the orbit path shows where the satellite is in the earth's shadow,  

DLR